Location: Newark
(25.0000°N, 73.5000°E)
Time: 04:59:24
(UTC+00:00)

Altair - Pass Details

Date: 01 March 2021
Orbit: 1501 x 1683 km, 47.2° (Epoch: 12 April)

Event Time Altitude Azimuth Distance (km) Brightness Sun altitude
Rises 13:39:12 0° 240° (WSW) 4,624 11.3 -7.8°
Reaches altitude 10° 13:42:17 10° 244° (WSW) 3,643 10.8 -8.5°
Maximum altitude 13:51:13 57° 322° (NW) 1,741 8.0 -10.5°
Drops below altitude 10° 14:00:23 10° 39° (NE) 3,723 9.1 -12.6°
Enters shadow 14:03:18 - 44° (NE) 4,639 9.6 -13.3°
Sets 14:03:35 0° 44° (NE) 4,731 - -13.3°
